Eagle, CO

7:36 AM MST on November 18, 2017 (GMT -0700)
Eagle County Regional

Weather History for KEGE - October, 2012

Change the Weather History Date:

Monday, October 29, 2012

  Actual Average Record
Temperature  
Mean Temperature 45 °F -  
Max Temperature 62 °F 55 °F 79 °F (1950)
Min Temperature 28 °F 22 °F 10 °F (1976)
Degree Days  
Heating Degree Days 20    
Moisture  
Dew Point 26 °F    
Average Humidity 63    
Maximum Humidity 93    
Minimum Humidity 20    
Precipitation  
Precipitation 0.00 in - - ()
Sea Level Pressure  
Sea Level Pressure 30.27 in    
Wind  
Wind Speed 4 mph (ESE)    
Max Wind Speed 21 mph    
Max Gust Speed 29 mph    
Visibility 10 miles    
Events      
Averages and records for this station are not official NWS values.
T = Trace of Precipitation, MM = Missing Value Source: NWS Daily Summary

Daily Weather History Graph

Daily Weather History Graph

Search for Another Location

Airport or City:

Trip Planner

Search our weather history database for the weather conditions in past years. The results will help you decide how hot, cold, wet, or windy it might be!

Date:

Astronomy

Oct. 29, 2012 Rise Set
Actual Time 7:33 AM MDT 6:08 PM MDT
Civil Twilight 7:05 AM MDT 6:36 PM MDT
Nautical Twilight 6:33 AM MDT 7:08 PM MDT
Astronomical Twilight 6:02 AM MDT 7:39 PM MDT
Moon 6:02 PM MDT (10/29) 7:26 AM MDT (10/29)
Length of Visible Light 11h 30m
Length of Day
10h 35m
Full, 100% of the Moon is Illuminated
Oct 29
Full
Oct 29
Full
Nov 6
Last Quarter
Nov 13
New
Nov 20
First Quarter

Hourly Weather History & Observations

Time (MDT) Temp. Windchill Dew Point Humidity Pressure Visibility Wind Dir Wind Speed Gust Speed Precip Events Conditions
12:15 AM 37.4 °F 33.8 °F 28.4 °F 70% 30.25 in 10.0 mi East 4.6 mph - N/A   Clear
12:35 AM 37.4 °F 33.8 °F 28.4 °F 70% 30.26 in 10.0 mi East 4.6 mph - N/A   Mostly Cloudy
12:55 AM 37.4 °F - 28.4 °F 70% 30.26 in 10.0 mi Calm Calm - N/A   Scattered Clouds
1:15 AM 35.6 °F - 28.4 °F 75% 30.26 in 10.0 mi Calm Calm - N/A   Clear
1:35 AM 37.4 °F - 28.4 °F 70% 30.27 in 10.0 mi Calm Calm - N/A   Clear
1:55 AM 35.6 °F - 26.6 °F 70% 30.27 in 10.0 mi Calm Calm - N/A   Clear
2:15 AM 33.8 °F - 26.6 °F 75% 30.27 in 10.0 mi Calm Calm - N/A   Clear
2:35 AM 33.8 °F - 26.6 °F 75% 30.28 in 10.0 mi Calm Calm - N/A   Clear
2:55 AM 32.0 °F 27.5 °F 26.6 °F 80% 30.28 in 10.0 mi ESE 4.6 mph - N/A   Clear
3:15 AM 33.8 °F 30.8 °F 26.6 °F 75% 30.28 in 10.0 mi SE 3.5 mph - N/A   Clear
3:35 AM 32.0 °F - 26.6 °F 80% 30.28 in 10.0 mi Calm Calm - N/A   Clear
3:55 AM 30.2 °F 26.7 °F 26.6 °F 86% 30.28 in 10.0 mi East 3.5 mph - N/A   Clear
4:15 AM 30.2 °F 26.7 °F 26.6 °F 86% 30.28 in 10.0 mi ESE 3.5 mph - N/A   Clear
4:55 AM 30.2 °F - 26.6 °F 86% 30.28 in 10.0 mi Calm Calm - N/A   Clear
5:15 AM 28.4 °F - 26.6 °F 93% 30.29 in 10.0 mi Calm Calm - N/A   Clear
5:35 AM 30.2 °F - 26.6 °F 86% 30.29 in 10.0 mi Calm Calm - N/A   Clear
5:55 AM 28.4 °F - 26.6 °F 93% 30.29 in 10.0 mi Calm Calm - N/A   Clear
6:15 AM 28.4 °F 24.6 °F 26.6 °F 93% 30.29 in 10.0 mi ESE 3.5 mph - N/A   Clear
6:35 AM 28.4 °F - 26.6 °F 93% 30.29 in 10.0 mi Calm Calm - N/A   Clear
6:50 AM 28.4 °F - 26.6 °F 93% 30.29 in 10.0 mi Calm Calm - N/A   Scattered Clouds
7:50 AM 28.4 °F - 24.8 °F 86% 30.30 in 10.0 mi Calm Calm - N/A   Scattered Clouds
8:50 AM 30.2 °F - 26.6 °F 86% 30.32 in 10.0 mi Calm Calm - N/A   Partly Cloudy
9:50 AM 35.6 °F - 26.6 °F 70% 30.32 in 10.0 mi Calm Calm - N/A   Partly Cloudy
10:50 AM 42.8 °F - 28.4 °F 57% 30.30 in 10.0 mi Calm Calm - N/A   Partly Cloudy
11:50 AM 48.2 °F - 28.4 °F 46% 30.29 in 10.0 mi Calm Calm - N/A   Scattered Clouds
12:55 PM 55.4 °F - 26.6 °F 33% 30.25 in 10.0 mi Calm Calm - N/A   Mostly Cloudy
1:50 PM 60.8 °F - 24.8 °F 25% 30.21 in 10.0 mi SW 17.3 mph 28.8 mph N/A   Mostly Cloudy
3:47 PM 62.6 °F - 21.2 °F 20% 30.19 in 10.0 mi SW 20.7 mph 27.6 mph N/A   Partly Cloudy
4:47 PM 62.6 °F - 23.0 °F 22% 30.18 in 10.0 mi SW 20.7 mph 26.5 mph N/A   Partly Cloudy
5:47 PM 60.8 °F - 24.8 °F 25% 30.19 in 10.0 mi SW 13.8 mph - N/A   Partly Cloudy
6:47 PM 57.2 °F - 24.8 °F 29% 30.23 in 10.0 mi SW 11.5 mph - N/A   Clear
7:15 PM 53.6 °F - 24.8 °F 33% 30.23 in 10.0 mi WNW 5.8 mph - N/A   Clear
7:35 PM 51.8 °F - 24.8 °F 35% 30.24 in 10.0 mi West 5.8 mph - N/A   Clear
7:55 PM 51.8 °F - 24.8 °F 35% 30.24 in 10.0 mi East 3.5 mph - N/A   Clear
8:15 PM 48.2 °F - 26.6 °F 43% 30.24 in 10.0 mi East 6.9 mph - N/A   Clear
8:35 PM 44.6 °F 40.2 °F 26.6 °F 49% 30.25 in 10.0 mi East 8.1 mph - N/A   Clear
8:55 PM 44.6 °F 40.7 °F 26.6 °F 49% 30.25 in 10.0 mi East 6.9 mph - N/A   Clear
9:15 PM 44.6 °F 39.2 °F 26.6 °F 49% 30.25 in 10.0 mi East 10.4 mph - N/A   Clear
9:35 PM 41.0 °F 35.8 °F 26.6 °F 57% 30.26 in 10.0 mi East 8.1 mph - N/A   Clear
9:55 PM 41.0 °F 35.8 °F 26.6 °F 57% 30.27 in 10.0 mi East 8.1 mph - N/A   Clear
10:15 PM 39.2 °F 35.0 °F 26.6 °F 61% 30.27 in 10.0 mi East 5.8 mph - N/A   Clear
10:35 PM 39.2 °F 35.9 °F 26.6 °F 61% 30.28 in 10.0 mi East 4.6 mph - N/A   Clear
10:55 PM 39.2 °F - 26.6 °F 61% 30.27 in 10.0 mi Calm Calm - N/A   Clear
11:15 PM 37.4 °F 32.8 °F 26.6 °F 65% 30.27 in 10.0 mi East 5.8 mph - N/A   Clear
11:35 PM 37.4 °F 32.8 °F 26.6 °F 65% 30.28 in 10.0 mi East 5.8 mph - N/A   Clear
11:55 PM 37.4 °F 32.8 °F 26.6 °F 65% 30.28 in 10.0 mi East 5.8 mph - N/A   Clear